| time (UTC) | temp F | wind direction | speed MPH | gust MPH | rain 1hr in | rain 24hr in | rain mn in | humidity % | barometer mb |
| 20260507095532 | 49 | 210 | 15.0 | 24.0 | 0.00 | 0.00 | 0.00 | 38 | 1015.1 |
| 20260507095035 | 48 | 223 | 12.0 | 20.0 | 0.00 | 0.00 | 0.00 | 39 | 1015.0 |
| 20260507094553 | 48 | 266 | 13.0 | 19.0 | 0.00 | 0.00 | 0.00 | 37 | 1014.9 |
| 20260507094034 | 48 | 255 | 11.0 | 22.0 | 0.00 | 0.00 | 0.00 | 35 | 1014.9 |
| 20260507093533 | 49 | 249 | 10.0 | 22.0 | 0.00 | 0.00 | 0.00 | 36 | 1014.9 |
| 20260507093040 | 49 | 249 | 14.0 | 22.0 | 0.00 | 0.00 | 0.00 | 33 | 1014.8 |
| 20260507092533 | 50 | 236 | 11.0 | 21.0 | 0.00 | 0.00 | 0.00 | 33 | 1014.9 |
| 20260507092032 | 51 | 245 | 9.0 | 18.0 | 0.00 | 0.00 | 0.00 | 35 | 1014.9 |
| 20260507091542 | 51 | 243 | 10.0 | 18.0 | 0.00 | 0.00 | 0.00 | 32 | 1014.9 |
| 20260507091032 | 51 | 212 | 10.0 | 23.0 | 0.00 | 0.00 | 0.00 | 36 | 1014.9 |
| 20260507090534 | 49 | 278 | 10.0 | 23.0 | 0.00 | 0.00 | 0.00 | 35 | 1014.9 |
| 20260507090044 | 49 | 193 | 11.0 | 24.0 | 0.00 | 0.00 | 0.00 | 35 | 1015.0 |
| 20260507085531 | 48 | 228 | 14.0 | 25.0 | 0.00 | 0.00 | 0.00 | 34 | 1015.0 |
| 20260507085031 | 50 | 197 | 13.0 | 25.0 | 0.00 | 0.00 | 0.00 | 34 | 1014.9 |
| 20260507084542 | 51 | 245 | 10.0 | 23.0 | 0.00 | 0.00 | 0.00 | 35 | 1014.9 |
| 20260507084034 | 49 | 214 | 11.0 | 23.0 | 0.00 | 0.00 | 0.00 | 34 | 1014.9 |
| 20260507083534 | 50 | 189 | 6.0 | 16.0 | 0.00 | 0.00 | 0.00 | 33 | 1014.9 |
| 20260507083041 | 50 | 178 | 8.0 | 15.0 | 0.00 | 0.00 | 0.00 | 35 | 1014.9 |
| 20260507082531 | 50 | 169 | 5.0 | 13.0 | 0.00 | 0.00 | 0.00 | 34 | 1015.0 |
| 20260507082030 | 49 | 231 | 6.0 | 13.0 | 0.00 | 0.00 | 0.00 | 37 | 1014.9 |
| 20260507081549 | 48 | 198 | 7.0 | 12.0 | 0.00 | 0.00 | 0.00 | 37 | 1015.0 |
| 20260507081033 | 47 | 209 | 6.0 | 15.0 | 0.00 | 0.00 | 0.00 | 36 | 1015.0 |
| 20260507080529 | 47 | 176 | 8.0 | 16.0 | 0.00 | 0.00 | 0.00 | 36 | 1015.0 |
| 20260507080039 | 47 | 181 | 8.0 | 16.0 | 0.00 | 0.00 | 0.00 | 36 | 1015.0 |
| 20260507075532 | 47 | 174 | 5.0 | 17.0 | 0.00 | 0.00 | 0.00 | 36 | 1015.0 |
| 20260507075031 | 47 | 189 | 8.0 | 17.0 | 0.00 | 0.00 | 0.00 | 38 | 1015.0 |
| 20260507074548 | 48 | 184 | 6.0 | 14.0 | 0.00 | 0.00 | 0.00 | 36 | 1014.9 |
| 20260507074030 | 47 | 150 | 8.0 | 12.0 | 0.00 | 0.00 | 0.00 | 34 | 1015.0 |
| 20260507073531 | 47 | 208 | 6.0 | 14.0 | 0.00 | 0.00 | 0.00 | 36 | 1015.0 |
| 20260507073048 | 46 | 190 | 8.0 | 14.0 | 0.00 | 0.00 | 0.00 | 38 | 1015.0 |
| 20260507072531 | 45 | 144 | 7.0 | 13.0 | 0.00 | 0.00 | 0.00 | 39 | 1015.2 |
| 20260507072030 | 45 | 210 | 8.0 | 14.0 | 0.00 | 0.00 | 0.00 | 38 | 1015.2 |
| 20260507071542 | 46 | 208 | 8.0 | 15.0 | 0.00 | 0.00 | 0.00 | 37 | 1015.2 |
| 20260507071030 | 46 | 201 | 9.0 | 15.0 | 0.00 | 0.00 | 0.00 | 38 | 1015.2 |
| 20260507070530 | 46 | 209 | 6.0 | 12.0 | 0.00 | 0.00 | 0.00 | 38 | 1015.2 |
| 20260507070055 | 46 | 182 | 5.0 | 14.0 | 0.00 | 0.00 | 0.00 | 38 | 1015.1 |
| 20260507065533 | 45 | 176 | 7.0 | 14.0 | 0.00 | 0.00 | 0.00 | 38 | 1015.1 |
| 20260507065030 | 45 | 203 | 7.0 | 12.0 | 0.00 | 0.00 | 0.00 | 39 | 1015.0 |
| 20260507064553 | 45 | 214 | 6.0 | 11.0 | 0.00 | 0.00 | 0.00 | 40 | 1015.2 |
| 20260507064032 | 45 | 228 | 6.0 | 9.0 | 0.00 | 0.00 | 0.00 | 41 | 1015.2 |
| 20260507063530 | 45 | 222 | 5.0 | 9.0 | 0.00 | 0.00 | 0.00 | 39 | 1015.3 |
| 20260507063039 | 45 | 222 | 3.0 | 9.0 | 0.00 | 0.00 | 0.00 | 39 | 1015.2 |
| 20260507062530 | 45 | 182 | 4.0 | 9.0 | 0.00 | 0.00 | 0.00 | 40 | 1015.2 |
| 20260507062032 | 45 | 170 | 4.0 | 13.0 | 0.00 | 0.00 | 0.00 | 38 | 1015.2 |
| 20260507061545 | 45 | 143 | 7.0 | 13.0 | 0.00 | 0.00 | 0.00 | 38 | 1015.1 |
| 20260507061030 | 45 | 201 | 7.0 | 13.0 | 0.00 | 0.00 | 0.00 | 36 | 1015.1 |
| 20260507060530 | 45 | 188 | 5.0 | 12.0 | 0.00 | 0.00 | 0.00 | 39 | 1015.0 |
| 20260507060042 | 44 | 205 | 7.0 | 12.0 | 0.00 | 0.00 | 0.00 | 38 | 1015.0 |
| 20260507055531 | 45 | 140 | 5.0 | 12.0 | 0.00 | 0.00 | 0.00 | 40 | 1014.9 |
| 20260507055031 | 45 | 139 | 7.0 | 11.0 | 0.00 | 0.00 | 0.00 | 41 | 1014.9 |
| 20260507054542 | 44 | 168 | 7.0 | 11.0 | 0.00 | 0.00 | 0.00 | 42 | 1014.8 |
| 20260507054034 | 44 | 177 | 5.0 | 12.0 | 0.00 | 0.00 | 0.00 | 42 | 1014.8 |
| 20260507053531 | 44 | 172 | 7.0 | 12.0 | 0.00 | 0.00 | 0.00 | 41 | 1014.7 |
| 20260507053040 | 44 | 159 | 6.0 | 12.0 | 0.00 | 0.00 | 0.00 | 42 | 1014.7 |
| 20260507052530 | 44 | 130 | 5.0 | 12.0 | 0.00 | 0.00 | 0.00 | 45 | 1014.6 |
| 20260507052030 | 43 | 172 | 4.0 | 12.0 | 0.00 | 0.00 | 0.00 | 47 | 1014.7 |
| 20260507051540 | 42 | 152 | 6.0 | 12.0 | 0.00 | 0.00 | 0.00 | 46 | 1014.7 |
| 20260507051034 | 43 | 147 | 4.0 | 10.0 | 0.00 | 0.00 | 0.00 | 49 | 1014.8 |
| 20260507050534 | 42 | 170 | 4.0 | 10.0 | 0.00 | 0.00 | 0.00 | 53 | 1014.8 |
| 20260507050050 | 41 | 171 | 5.0 | 10.0 | 0.00 | 0.00 | 0.00 | 50 | 1014.7 |
| 20260507045535 | 41 | 157 | 5.0 | 11.0 | 0.00 | 0.00 | 0.00 | 53 | 1014.7 |
| 20260507045033 | 40 | 171 | 5.0 | 11.0 | 0.00 | 0.00 | 0.00 | 55 | 1014.8 |
| 20260507044557 | 39 | 175 | 5.0 | 9.0 | 0.00 | 0.00 | 0.00 | 55 | 1014.9 |
| 20260507044035 | 39 | 158 | 4.0 | 9.0 | 0.00 | 0.00 | 0.00 | 55 | 1014.8 |
| 20260507043534 | 38 | 143 | 5.0 | 9.0 | 0.00 | 0.00 | 0.00 | 57 | 1014.9 |
| 20260507043042 | 37 | 197 | 3.0 | 9.0 | 0.00 | 0.00 | 0.00 | 60 | 1014.8 |
| 20260507042533 | 36 | 160 | 4.0 | 10.0 | 0.00 | 0.00 | 0.00 | 61 | 1014.7 |
| 20260507042034 | 35 | 167 | 4.0 | 10.0 | 0.00 | 0.00 | 0.00 | 62 | 1014.7 |
| 20260507041545 | 35 | 165 | 4.0 | 10.0 | 0.00 | 0.00 | 0.00 | 63 | 1014.8 |
| 20260507041034 | 34 | 142 | 4.0 | 10.0 | 0.00 | 0.00 | 0.00 | 64 | 1014.9 |
| 20260507040534 | 34 | 167 | 4.0 | 9.0 | 0.00 | 0.00 | 0.00 | 65 | 1014.8 |
| 20260507040044 | 33 | 142 | 4.0 | 9.0 | 0.00 | 0.00 | 0.00 | 67 | 1014.8 |
| 20260507035534 | 32 | 172 | 4.0 | 9.0 | 0.00 | 0.00 | 0.00 | 71 | 1014.8 |
| 20260507035035 | 30 | 178 | 3.0 | 9.0 | 0.00 | 0.00 | 0.00 | 75 | 1014.8 |
| 20260507034543 | 28 | 151 | 3.0 | 9.0 | 0.00 | 0.00 | 0.00 | 80 | 1014.7 |
| 20260507034034 | 25 | 159 | 3.0 | 8.0 | 0.00 | 0.00 | 0.00 | 84 | 1014.7 |
| 20260507033535 | 23 | 171 | 2.0 | 6.0 | 0.00 | 0.00 | 0.00 | 85 | 1014.7 |
| 20260507033058 | 23 | 135 | 2.0 | 5.0 | 0.00 | 0.00 | 0.00 | 86 | 1014.7 |
| 20260507032535 | 22 | 0 | 1.0 | 4.0 | 0.00 | 0.00 | 0.00 | 86 | 1014.8 |
| 20260507032040 | 22 | 130 | 0.0 | 3.0 | 0.00 | 0.00 | 0.00 | 86 | 1014.7 |
| 20260507031553 | 22 | 0 | 0.0 | 3.0 | 0.00 | 0.00 | 0.00 | 85 | 1014.7 |
| 20260507031033 | 22 | 132 | 1.0 | 3.0 | 0.00 | 0.00 | 0.00 | 86 | 1014.7 |
| 20260507030535 | 22 | 114 | 1.0 | 3.0 | 0.00 | 0.00 | 0.00 | 86 | 1014.7 |
| 20260507030101 | 21 | 91 | 1.0 | 3.0 | 0.00 | 0.00 | 0.00 | 85 | 1014.6 |
| 20260507025532 | 21 | 95 | 1.0 | 3.0 | 0.00 | 0.00 | 0.00 | 85 | 1014.6 |
| 20260507025031 | 21 | 101 | 1.0 | 3.0 | 0.00 | 0.00 | 0.00 | 86 | 1014.6 |
| 20260507024604 | 21 | 118 | 1.0 | 3.0 | 0.00 | 0.00 | 0.00 | 86 | 1014.6 |
| 20260507024033 | 21 | 93 | 1.0 | 3.0 | 0.00 | 0.00 | 0.00 | 86 | 1014.6 |
| 20260507023534 | 21 | 93 | 1.0 | 3.0 | 0.00 | 0.00 | 0.00 | 86 | 1014.7 |
| 20260507023040 | 21 | 139 | 1.0 | 2.0 | 0.00 | 0.00 | 0.00 | 86 | 1014.7 |
| 20260507022534 | 21 | 153 | 1.0 | 2.0 | 0.00 | 0.00 | 0.00 | 85 | 1014.6 |
| 20260507022035 | 21 | 112 | 1.0 | 3.0 | 0.00 | 0.00 | 0.00 | 85 | 1014.6 |
| 20260507021550 | 21 | 112 | 1.0 | 3.0 | 0.00 | 0.00 | 0.00 | 85 | 1014.6 |
| 20260507021034 | 21 | 112 | 1.0 | 2.0 | 0.00 | 0.00 | 0.00 | 85 | 1014.6 |
| 20260507020536 | 22 | 112 | 1.0 | 2.0 | 0.00 | 0.00 | 0.00 | 85 | 1014.7 |
| 20260507020057 | 22 | 112 | 1.0 | 2.0 | 0.00 | 0.00 | 0.00 | 85 | 1014.8 |
| 20260507015534 | 22 | 112 | 0.0 | 2.0 | 0.00 | 0.00 | 0.00 | 85 | 1014.6 |
| 20260507015036 | 22 | 0 | 0.0 | 2.0 | 0.00 | 0.00 | 0.00 | 84 | 1014.7 |
| 20260507014554 | 22 | 94 | 1.0 | 2.0 | 0.00 | 0.00 | 0.00 | 84 | 1014.6 |
| 20260507014034 | 22 | 94 | 1.0 | 2.0 | 0.00 | 0.00 | 0.00 | 84 | 1014.6 |
| 20260507013539 | 22 | 94 | 1.0 | 2.0 | 0.00 | 0.00 | 0.00 | 83 | 1014.6 |
| 20260507013045 | 22 | 94 | 1.0 | 2.0 | 0.00 | 0.00 | 0.00 | 83 | 1014.6 |
| 20260507012535 | 22 | 0 | 0.0 | 1.0 | 0.00 | 0.00 | 0.00 | 84 | 1014.6 |
| 20260507012035 | 22 | 0 | 0.0 | 1.0 | 0.00 | 0.00 | 0.00 | 84 | 1014.7 |
| 20260507011552 | 22 | 0 | 0.0 | 0.0 | 0.00 | 0.00 | 0.00 | 84 | 1014.6 |
| 20260507011034 | 22 | 0 | 0.0 | 2.0 | 0.00 | 0.00 | 0.00 | 84 | 1014.7 |
| 20260507010535 | 23 | 0 | 0.0 | 2.0 | 0.00 | 0.00 | 0.00 | 83 | 1014.7 |
| 20260507010045 | 23 | 0 | 1.0 | 3.0 | 0.00 | 0.00 | 0.00 | 83 | 1014.6 |
| 20260507005535 | 23 | 94 | 1.0 | 3.0 | 0.00 | 0.00 | 0.00 | 83 | 1014.6 |
| 20260507005034 | 23 | 94 | 1.0 | 3.0 | 0.00 | 0.00 | 0.00 | 83 | 1014.6 |
| 20260507004556 | 23 | 113 | 1.0 | 3.0 | 0.00 | 0.00 | 0.00 | 83 | 1014.6 |
| 20260507004035 | 23 | 126 | 1.0 | 3.0 | 0.00 | 0.00 | 0.00 | 83 | 1014.5 |
| 20260507003534 | 23 | 132 | 1.0 | 3.0 | 0.00 | 0.00 | 0.00 | 83 | 1014.5 |
| 20260507003050 | 23 | 145 | 1.0 | 3.0 | 0.00 | 0.00 | 0.00 | 82 | 1014.5 |
| 20260507002534 | 24 | 140 | 1.0 | 3.0 | 0.00 | 0.00 | 0.00 | 82 | 1014.5 |
| 20260507002034 | 24 | 140 | 1.0 | 3.0 | 0.00 | 0.00 | 0.00 | 81 | 1014.5 |
| 20260507001551 | 24 | 140 | 1.0 | 3.0 | 0.00 | 0.00 | 0.00 | 81 | 1014.6 |
| 20260507001034 | 24 | 170 | 0.0 | 2.0 | 0.00 | 0.00 | 0.00 | 81 | 1014.6 |
| 20260507000534 | 24 | 0 | 0.0 | 0.0 | 0.00 | 0.00 | 0.00 | 81 | 1014.6 |
| 20260507000044 | 25 | 0 | 0.0 | 1.0 | 0.00 | 0.00 | 0.00 | 81 | 1014.5 |
| 20260506235534 | 25 | 0 | 0.0 | 4.0 | 0.00 | 0.00 | 0.00 | 81 | 1014.5 |
| 20260506235033 | 25 | 170 | 1.0 | 4.0 | 0.00 | 0.00 | 0.00 | 81 | 1014.5 |
| 20260506234555 | 25 | 178 | 1.0 | 2.0 | 0.00 | 0.00 | 0.00 | 81 | 1014.5 |
| 20260506234034 | 25 | 178 | 0.0 | 2.0 | 0.00 | 0.00 | 0.00 | 81 | 1014.4 |
| 20260506233534 | 25 | 178 | 0.0 | 2.0 | 0.00 | 0.00 | 0.00 | 80 | 1014.5 |
| 20260506233052 | 25 | 0 | 0.0 | 5.0 | 0.00 | 0.00 | 0.00 | 80 | 1014.5 |
| 20260506232533 | 26 | 191 | 0.0 | 5.0 | 0.00 | 0.00 | 0.00 | 79 | 1014.4 |
| 20260506232034 | 26 | 177 | 1.0 | 4.0 | 0.00 | 0.00 | 0.00 | 79 | 1014.4 |
| 20260506231553 | 26 | 201 | 0.0 | 4.0 | 0.00 | 0.00 | 0.00 | 78 | 1014.5 |
| 20260506231034 | 26 | 224 | 1.0 | 5.0 | 0.00 | 0.00 | 0.00 | 78 | 1014.5 |
| 20260506230533 | 27 | 0 | 1.0 | 5.0 | 0.00 | 0.00 | 0.00 | 78 | 1014.5 |
| 20260506230050 | 27 | 207 | 0.0 | 4.0 | 0.00 | 0.00 | 0.00 | 78 | 1014.4 |
| 20260506225530 | 27 | 203 | 1.0 | 5.0 | 0.00 | 0.00 | 0.00 | 78 | 1014.5 |
| 20260506225034 | 27 | 187 | 1.0 | 5.0 | 0.00 | 0.00 | 0.00 | 78 | 1014.5 |
| 20260506224543 | 27 | 0 | 1.0 | 3.0 | 0.00 | 0.00 | 0.00 | 77 | 1014.4 |
| 20260506224031 | 27 | 0 | 1.0 | 3.0 | 0.00 | 0.00 | 0.00 | 79 | 1014.4 |
| 20260506223532 | 27 | 200 | 1.0 | 3.0 | 0.00 | 0.00 | 0.00 | 78 | 1014.5 |
| 20260506223042 | 27 | 221 | 2.0 | 3.0 | 0.00 | 0.00 | 0.00 | 79 | 1014.4 |
| 20260506222530 | 27 | 0 | 1.0 | 3.0 | 0.00 | 0.00 | 0.00 | 79 | 1014.4 |
| 20260506222030 | 27 | 187 | 1.0 | 3.0 | 0.00 | 0.00 | 0.00 | 79 | 1014.4 |
| 20260506221539 | 27 | 0 | 0.0 | 4.0 | 0.00 | 0.00 | 0.00 | 78 | 1014.2 |
| 20260506221030 | 27 | 0 | 1.0 | 4.0 | 0.00 | 0.00 | 0.00 | 78 | 1014.2 |
| 20260506220530 | 27 | 189 | 1.0 | 4.0 | 0.00 | 0.00 | 0.00 | 78 | 1014.3 |
| 20260506220039 | 26 | 201 | 1.0 | 4.0 | 0.00 | 0.00 | 0.00 | 78 | 1014.2 |
| 20260506215530 | 26 | 217 | 0.0 | 5.0 | 0.00 | 0.00 | 0.00 | 78 | 1014.3 |
| 20260506215033 | 26 | 173 | 1.0 | 5.0 | 0.00 | 0.00 | 0.00 | 77 | 1014.1 |
| 20260506214545 | 26 | 184 | 1.0 | 4.0 | 0.00 | 0.00 | 0.00 | 77 | 1014.1 |
| 20260506214036 | 27 | 0 | 1.0 | 4.0 | 0.00 | 0.00 | 0.00 | 77 | 1014.1 |
| 20260506213533 | 27 | 185 | 1.0 | 4.0 | 0.00 | 0.00 | 0.00 | 77 | 1014.1 |
| 20260506213043 | 27 | 210 | 0.0 | 4.0 | 0.00 | 0.00 | 0.00 | 77 | 1014.1 |
| 20260506212530 | 27 | 201 | 1.0 | 4.0 | 0.00 | 0.00 | 0.00 | 77 | 1014.0 |
| 20260506212031 | 27 | 0 | 0.0 | 5.0 | 0.00 | 0.00 | 0.00 | 77 | 1013.9 |
| 20260506211549 | 27 | 172 | 1.0 | 5.0 | 0.00 | 0.00 | 0.00 | 76 | 1014.0 |
| 20260506211030 | 27 | 170 | 1.0 | 4.0 | 0.00 | 0.00 | 0.00 | 76 | 1014.0 |
| 20260506210531 | 27 | 175 | 1.0 | 5.0 | 0.00 | 0.00 | 0.00 | 76 | 1014.0 |
| 20260506210040 | 27 | 0 | 1.0 | 5.0 | 0.00 | 0.00 | 0.00 | 76 | 1014.0 |
| 20260506205533 | 27 | 174 | 1.0 | 5.0 | 0.00 | 0.00 | 0.00 | 75 | 1014.0 |
| 20260506205030 | 27 | 187 | 2.0 | 5.0 | 0.00 | 0.00 | 0.00 | 75 | 1014.0 |
| 20260506204541 | 27 | 176 | 2.0 | 5.0 | 0.00 | 0.00 | 0.00 | 74 | 1013.9 |
| 20260506204031 | 28 | 155 | 1.0 | 4.0 | 0.00 | 0.00 | 0.00 | 74 | 1013.9 |
| 20260506203532 | 28 | 175 | 1.0 | 5.0 | 0.00 | 0.00 | 0.00 | 73 | 1013.8 |
| 20260506203044 | 28 | 179 | 1.0 | 5.0 | 0.00 | 0.00 | 0.00 | 73 | 1013.7 |
| 20260506202530 | 28 | 147 | 1.0 | 4.0 | 0.00 | 0.00 | 0.00 | 72 | 1013.7 |
| 20260506202034 | 29 | 171 | 1.0 | 4.0 | 0.00 | 0.00 | 0.00 | 72 | 1013.8 |
| 20260506201542 | 29 | 174 | 1.0 | 4.0 | 0.00 | 0.00 | 0.00 | 71 | 1013.7 |
| 20260506201029 | 29 | 232 | 0.0 | 1.0 | 0.00 | 0.00 | 0.00 | 70 | 1013.8 |
| 20260506200632 | 30 | 0 | 0.0 | 0.0 | 0.00 | 0.00 | 0.00 | 70 | 1013.6 |
| 20260506200042 | 30 | 0 | 0.0 | 0.0 | 0.00 | 0.00 | 0.00 | 69 | 1013.6 |
| 20260506195533 | 30 | 0 | 0.0 | 2.0 | 0.00 | 0.00 | 0.00 | 69 | 1013.6 |
| 20260506195032 | 31 | 0 | 0.0 | 2.0 | 0.00 | 0.00 | 0.00 | 68 | 1013.6 |
| 20260506194549 | 31 | 232 | 1.0 | 2.0 | 0.00 | 0.00 | 0.00 | 68 | 1013.4 |
| 20260506194030 | 32 | 232 | 0.0 | 1.0 | 0.00 | 0.00 | 0.00 | 67 | 1013.4 |
| 20260506193529 | 32 | 0 | 0.0 | 1.0 | 0.00 | 0.00 | 0.00 | 66 | 1013.4 |
| 20260506193045 | 33 | 0 | 0.0 | 1.0 | 0.00 | 0.00 | 0.00 | 66 | 1013.3 |
| 20260506192529 | 33 | 232 | 0.0 | 1.0 | 0.00 | 0.00 | 0.00 | 66 | 1013.3 |
| 20260506192034 | 33 | 232 | 0.0 | 1.0 | 0.00 | 0.00 | 0.00 | 66 | 1013.3 |
| 20260506191545 | 33 | 232 | 0.0 | 0.0 | 0.00 | 0.00 | 0.00 | 67 | 1013.3 |
| 20260506191033 | 33 | 0 | 0.0 | 2.0 | 0.00 | 0.00 | 0.00 | 66 | 1013.3 |
| 20260506190533 | 32 | 0 | 0.0 | 3.0 | 0.00 | 0.00 | 0.00 | 67 | 1013.3 |
| 20260506190043 | 33 | 232 | 1.0 | 3.0 | 0.00 | 0.00 | 0.00 | 65 | 1013.3 |
| 20260506185536 | 34 | 232 | 1.0 | 3.0 | 0.00 | 0.00 | 0.00 | 64 | 1013.3 |
| 20260506185029 | 35 | 244 | 1.0 | 3.0 | 0.00 | 0.00 | 0.00 | 62 | 1013.2 |
| 20260506184552 | 36 | 0 | 0.0 | 2.0 | 0.00 | 0.00 | 0.00 | 60 | 1013.2 |
| 20260506184030 | 37 | 0 | 0.0 | 3.0 | 0.00 | 0.00 | 0.00 | 58 | 1013.2 |
| 20260506183530 | 37 | 257 | 0.0 | 3.0 | 0.00 | 0.00 | 0.00 | 58 | 1013.1 |
| 20260506183050 | 38 | 257 | 2.0 | 8.0 | 0.00 | 0.00 | 0.00 | 57 | 1013.1 |
| 20260506182529 | 38 | 255 | 2.0 | 8.0 | 0.00 | 0.00 | 0.00 | 57 | 1013.2 |
| 20260506182029 | 39 | 253 | 3.0 | 8.0 | 0.00 | 0.00 | 0.00 | 55 | 1013.1 |
| 20260506181539 | 39 | 263 | 3.0 | 9.0 | 0.00 | 0.00 | 0.00 | 55 | 1013.1 |
| 20260506181029 | 39 | 270 | 4.0 | 9.0 | 0.00 | 0.00 | 0.00 | 54 | 1013.1 |
| 20260506180533 | 40 | 253 | 2.0 | 7.0 | 0.00 | 0.00 | 0.00 | 55 | 1013.1 |
| 20260506180047 | 40 | 233 | 3.0 | 8.0 | 0.00 | 0.00 | 0.00 | 53 | 1013.1 |
| 20260506175532 | 41 | 249 | 3.0 | 8.0 | 0.00 | 0.00 | 0.00 | 52 | 1013.2 |
| 20260506175035 | 41 | 234 | 4.0 | 9.0 | 0.00 | 0.00 | 0.00 | 51 | 1013.1 |
| 20260506174541 | 41 | 222 | 4.0 | 10.0 | 0.00 | 0.00 | 0.00 | 50 | 1013.1 |
| 20260506174034 | 42 | 222 | 4.0 | 10.0 | 0.00 | 0.00 | 0.00 | 50 | 1013.2 |
| 20260506173530 | 42 | 254 | 5.0 | 10.0 | 0.00 | 0.00 | 0.00 | 50 | 1013.2 |
| 20260506173117 | 42 | 268 | 6.0 | 12.0 | 0.00 | 0.00 | 0.00 | 49 | 1013.1 |
| 20260506172529 | 42 | 203 | 3.0 | 12.0 | 0.00 | 0.00 | 0.00 | 49 | 1013.1 |
| 20260506172030 | 42 | 236 | 7.0 | 12.0 | 0.00 | 0.00 | 0.00 | 48 | 1013.1 |
| 20260506171539 | 43 | 259 | 7.0 | 14.0 | 0.00 | 0.00 | 0.00 | 48 | 1013.1 |
| 20260506171033 | 43 | 228 | 8.0 | 14.0 | 0.00 | 0.00 | 0.00 | 46 | 1013.1 |
| 20260506170529 | 43 | 233 | 4.0 | 10.0 | 0.00 | 0.00 | 0.00 | 48 | 1013.0 |
| 20260506170050 | 43 | 272 | 5.0 | 11.0 | 0.00 | 0.00 | 0.00 | 48 | 1013.0 |
| 20260506165529 | 43 | 257 | 5.0 | 13.0 | 0.00 | 0.00 | 0.00 | 48 | 1013.0 |
| 20260506165030 | 43 | 259 | 5.0 | 14.0 | 0.00 | 0.00 | 0.00 | 48 | 1012.9 |
| 20260506164541 | 43 | 255 | 7.0 | 14.0 | 0.00 | 0.00 | 0.00 | 46 | 1012.9 |
| 20260506164030 | 43 | 256 | 8.0 | 15.0 | 0.00 | 0.00 | 0.00 | 48 | 1012.9 |
| 20260506163535 | 43 | 238 | 8.0 | 15.0 | 0.00 | 0.00 | 0.00 | 49 | 1012.8 |
| 20260506163042 | 44 | 236 | 9.0 | 15.0 | 0.00 | 0.00 | 0.00 | 50 | 1012.9 |
| 20260506162530 | 44 | 242 | 9.0 | 14.0 | 0.00 | 0.00 | 0.00 | 51 | 1013.0 |
| 20260506162033 | 44 | 261 | 7.0 | 14.0 | 0.00 | 0.00 | 0.00 | 50 | 1012.7 |
| 20260506161540 | 44 | 249 | 8.0 | 18.0 | 0.00 | 0.00 | 0.00 | 50 | 1012.7 |
| 20260506161030 | 44 | 247 | 8.0 | 18.0 | 0.00 | 0.00 | 0.00 | 50 | 1012.7 |
| 20260506160530 | 45 | 231 | 8.0 | 16.0 | 0.00 | 0.00 | 0.00 | 50 | 1012.7 |
| 20260506160040 | 45 | 255 | 8.0 | 15.0 | 0.00 | 0.00 | 0.00 | 49 | 1012.8 |
| 20260506155530 | 45 | 266 | 7.0 | 14.0 | 0.00 | 0.00 | 0.00 | 48 | 1012.8 |
| 20260506155032 | 45 | 261 | 7.0 | 17.0 | 0.00 | 0.00 | 0.00 | 49 | 1012.7 |
| 20260506154553 | 45 | 269 | 8.0 | 17.0 | 0.00 | 0.00 | 0.00 | 49 | 1012.6 |
| 20260506154031 | 45 | 256 | 8.0 | 14.0 | 0.00 | 0.00 | 0.00 | 50 | 1012.5 |
| 20260506153533 | 45 | 279 | 9.0 | 13.0 | 0.00 | 0.00 | 0.00 | 49 | 1012.6 |
| 20260506153047 | 45 | 251 | 7.0 | 15.0 | 0.00 | 0.00 | 0.00 | 49 | 1012.6 |
| 20260506152532 | 46 | 266 | 10.0 | 15.0 | 0.00 | 0.00 | 0.00 | 47 | 1012.6 |
| 20260506152032 | 46 | 250 | 7.0 | 15.0 | 0.00 | 0.00 | 0.00 | 49 | 1012.5 |
| 20260506151542 | 46 | 251 | 10.0 | 15.0 | 0.00 | 0.00 | 0.00 | 47 | 1012.5 |
| 20260506151030 | 46 | 251 | 8.0 | 16.0 | 0.00 | 0.00 | 0.00 | 49 | 1012.6 |
| 20260506150533 | 46 | 263 | 6.0 | 16.0 | 0.00 | 0.00 | 0.00 | 47 | 1012.5 |
| 20260506150043 | 46 | 272 | 11.0 | 16.0 | 0.00 | 0.00 | 0.00 | 48 | 1012.6 |
| 20260506145531 | 45 | 220 | 7.0 | 16.0 | 0.00 | 0.00 | 0.00 | 48 | 1012.5 |
| 20260506145032 | 46 | 295 | 9.0 | 15.0 | 0.00 | 0.00 | 0.00 | 46 | 1012.5 |
| 20260506144542 | 46 | 267 | 9.0 | 18.0 | 0.00 | 0.00 | 0.00 | 46 | 1012.5 |
| 20260506144034 | 46 | 277 | 10.0 | 18.0 | 0.00 | 0.00 | 0.00 | 46 | 1012.5 |
| 20260506143530 | 46 | 257 | 7.0 | 18.0 | 0.00 | 0.00 | 0.00 | 46 | 1012.5 |
| 20260506143045 | 46 | 282 | 8.0 | 18.0 | 0.00 | 0.00 | 0.00 | 45 | 1012.6 |
| 20260506142530 | 46 | 264 | 9.0 | 18.0 | 0.00 | 0.00 | 0.00 | 44 | 1012.5 |
| 20260506142029 | 46 | 258 | 10.0 | 18.0 | 0.00 | 0.00 | 0.00 | 46 | 1012.5 |
| 20260506141542 | 46 | 259 | 7.0 | 18.0 | 0.00 | 0.00 | 0.00 | 44 | 1012.5 |
| 20260506141030 | 46 | 222 | 8.0 | 19.0 | 0.00 | 0.00 | 0.00 | 46 | 1012.4 |
| 20260506140534 | 46 | 234 | 10.0 | 19.0 | 0.00 | 0.00 | 0.00 | 45 | 1012.5 |
| 20260506140042 | 46 | 266 | 10.0 | 17.0 | 0.00 | 0.00 | 0.00 | 43 | 1012.5 |
| 20260506135530 | 46 | 253 | 10.0 | 17.0 | 0.00 | 0.00 | 0.00 | 45 | 1012.5 |
| 20260506135033 | 46 | 253 | 11.0 | 19.0 | 0.00 | 0.00 | 0.00 | 46 | 1012.5 |
| 20260506134541 | 46 | 252 | 11.0 | 20.0 | 0.00 | 0.00 | 0.00 | 46 | 1012.5 |
| 20260506134029 | 46 | 249 | 8.0 | 20.0 | 0.00 | 0.00 | 0.00 | 47 | 1012.5 |
| 20260506133529 | 46 | 295 | 11.0 | 18.0 | 0.00 | 0.00 | 0.00 | 46 | 1012.4 |
| 20260506133040 | 46 | 264 | 9.0 | 21.0 | 0.00 | 0.00 | 0.00 | 46 | 1012.4 |
| 20260506132533 | 46 | 251 | 11.0 | 21.0 | 0.00 | 0.00 | 0.00 | 47 | 1012.4 |
| 20260506132032 | 46 | 262 | 12.0 | 20.0 | 0.00 | 0.00 | 0.00 | 46 | 1012.4 |
| 20260506131550 | 46 | 241 | 10.0 | 19.0 | 0.00 | 0.00 | 0.00 | 48 | 1012.3 |
| 20260506131030 | 46 | 272 | 10.0 | 20.0 | 0.00 | 0.00 | 0.00 | 48 | 1012.3 |
| 20260506130533 | 46 | 274 | 13.0 | 20.0 | 0.00 | 0.00 | 0.00 | 48 | 1012.3 |
| 20260506130059 | 46 | 261 | 8.0 | 21.0 | 0.00 | 0.00 | 0.00 | 49 | 1012.2 |
| 20260506125532 | 46 | 228 | 12.0 | 21.0 | 0.00 | 0.00 | 0.00 | 47 | 1012.3 |
| 20260506125036 | 47 | 250 | 9.0 | 17.0 | 0.00 | 0.00 | 0.00 | 46 | 1012.3 |
| 20260506124551 | 46 | 249 | 8.0 | 17.0 | 0.00 | 0.00 | 0.00 | 49 | 1012.2 |
| 20260506124029 | 45 | 266 | 13.0 | 17.0 | 0.00 | 0.00 | 0.00 | 49 | 1012.1 |
| 20260506123529 | 46 | 220 | 9.0 | 21.0 | 0.00 | 0.00 | 0.00 | 47 | 1012.2 |
| 20260506123042 | 46 | 258 | 13.0 | 21.0 | 0.00 | 0.00 | 0.00 | 47 | 1012.2 |
| 20260506122530 | 46 | 254 | 10.0 | 19.0 | 0.00 | 0.00 | 0.00 | 48 | 1012.1 |
| 20260506122032 | 46 | 292 | 10.0 | 20.0 | 0.00 | 0.00 | 0.00 | 49 | 1012.1 |
| 20260506121537 | 47 | 245 | 8.0 | 20.0 | 0.00 | 0.00 | 0.00 | 49 | 1012.0 |
| 20260506121029 | 46 | 240 | 12.0 | 20.0 | 0.00 | 0.00 | 0.00 | 48 | 1012.0 |
| 20260506120534 | 46 | 304 | 12.0 | 20.0 | 0.00 | 0.00 | 0.00 | 50 | 1012.1 |
| 20260506120050 | 46 | 261 | 12.0 | 18.0 | 0.00 | 0.00 | 0.00 | 49 | 1012.1 |
| 20260506115529 | 46 | 241 | 10.0 | 21.0 | 0.00 | 0.00 | 0.00 | 47 | 1011.9 |
| 20260506115032 | 46 | 243 | 12.0 | 21.0 | 0.00 | 0.00 | 0.00 | 48 | 1011.9 |
| 20260506114542 | 46 | 261 | 11.0 | 20.0 | 0.00 | 0.00 | 0.00 | 45 | 1011.9 |
| 20260506114029 | 46 | 237 | 13.0 | 22.0 | 0.00 | 0.00 | 0.00 | 47 | 1011.8 |
| 20260506113533 | 46 | 253 | 13.0 | 22.0 | 0.00 | 0.00 | 0.00 | 47 | 1011.8 |
| 20260506113049 | 46 | 276 | 10.0 | 22.0 | 0.00 | 0.00 | 0.00 | 49 | 1011.8 |
| 20260506112530 | 46 | 240 | 13.0 | 22.0 | 0.00 | 0.00 | 0.00 | 47 | 1011.8 |
| 20260506112032 | 46 | 255 | 11.0 | 19.0 | 0.00 | 0.00 | 0.00 | 48 | 1011.7 |
| 20260506111537 | 46 | 258 | 11.0 | 21.0 | 0.00 | 0.00 | 0.00 | 46 | 1011.7 |
| 20260506111033 | 46 | 263 | 12.0 | 21.0 | 0.00 | 0.00 | 0.00 | 46 | 1011.7 |
| 20260506110531 | 46 | 247 | 7.0 | 19.0 | 0.00 | 0.00 | 0.00 | 49 | 1011.5 |
| 20260506110043 | 46 | 238 | 13.0 | 20.0 | 0.00 | 0.00 | 0.00 | 46 | 1011.5 |
| 20260506105529 | 47 | 240 | 8.0 | 20.0 | 0.00 | 0.00 | 0.00 | 46 | 1011.3 |
| 20260506105050 | 46 | 283 | 11.0 | 21.0 | 0.00 | 0.00 | 0.00 | 47 | 1011.3 |
| 20260506104551 | 46 | 244 | 13.0 | 21.0 | 0.00 | 0.00 | 0.00 | 45 | 1011.2 |
| 20260506104034 | 46 | 247 | 11.0 | 21.0 | 0.00 | 0.00 | 0.00 | 45 | 1011.4 |
| 20260506103534 | 46 | 191 | 10.0 | 21.0 | 0.00 | 0.00 | 0.00 | 45 | 1011.3 |
| 20260506103049 | 47 | 272 | 11.0 | 21.0 | 0.00 | 0.00 | 0.00 | 48 | 1011.2 |
| 20260506102534 | 46 | 225 | 12.0 | 21.0 | 0.00 | 0.00 | 0.00 | 47 | 1011.1 |
| 20260506102034 | 45 | 267 | 12.0 | 21.0 | 0.00 | 0.00 | 0.00 | 48 | 1011.1 |
| 20260506101549 | 45 | 228 | 14.0 | 23.0 | 0.00 | 0.00 | 0.00 | 44 | 1011.1 |
| 20260506101033 | 46 | 263 | 14.0 | 23.0 | 0.00 | 0.00 | 0.00 | 47 | 1011.0 |
| 20260506100534 | 46 | 269 | 11.0 | 22.0 | 0.00 | 0.00 | 0.00 | 47 | 1011.0 |
| 20260506100059 | 45 | 257 | 9.0 | 21.0 | 0.00 | 0.00 | 0.00 | 49 | 1010.9 |